Weather History for Poplar Bluff, MO

Change the Weather History Date:

Wednesday, March 7, 2012

  Actual Average Record
Temperature  
Mean Temperature 62 °F -  
Max Temperature 71 °F 56 °F 80 °F (1925)
Min Temperature 54 °F 32 °F 6 °F (1943)
Degree Days  
Heating Degree Days 2    
Growing Degree Days 12 (Base 50)    
Moisture  
Dew Point 46 °F    
Average Humidity 54    
Maximum Humidity 68    
Minimum Humidity 44    
Precipitation  
Precipitation 0.00 in - - ()
Sea Level Pressure  
Sea Level Pressure 30.10 in    
Wind  
Wind Speed 14 mph (South)    
Max Wind Speed 22 mph    
Max Gust Speed 34 mph    
Visibility 10 miles    
Events      
Averages and records for this station are not official NWS values.
T = Trace of Precipitation, MM = Missing Value Source: NWS Daily Summary

Daily Weather History Graph

Daily Weather History Graph

Search for Another Location

Airport:

Trip Planner

Search our weather history database for the weather conditions in past years. The results will help you decide how hot, cold, wet, or windy it might be!

Date:

Astronomy

Mar. 07, 2012 Rise Set
Actual Time 6:23 AM CST 6:01 PM CST
Civil Twilight 5:57 AM CST 6:27 PM CST
Nautical Twilight 5:27 AM CST 6:57 PM CST
Astronomical Twilight 4:57 AM CST 7:27 PM CST
Moon 5:37 PM CST (3/7) 5:33 AM CST (3/7)
Length of Visible Light 12h 30m
Length of Day
11h 38m
Waxing Gibbous, 99% of the Moon is Illuminated
Mar 7
Waxing Gibbous
Mar 8
Full
Mar 14
Last Quarter
Mar 22
New
Mar 30
First Quarter

Hourly Weather History & Observations

Time (CST) Temp. Dew Point Humidity Pressure Visibility Wind Dir Wind Speed Gust Speed Precip Events Conditions
12:53 AM 54.0 °F 33.1 °F 45% 30.13 in 10.0 mi South 11.5 mph - N/A   Clear
1:53 AM 55.9 °F 34.0 °F 44% 30.14 in 10.0 mi South 12.7 mph 23.0 mph N/A   Clear
2:53 AM 55.0 °F 36.0 °F 49% 30.13 in 10.0 mi South 12.7 mph 20.7 mph N/A   Clear
3:53 AM 55.9 °F 37.9 °F 51% 30.14 in 10.0 mi South 13.8 mph - N/A   Clear
4:53 AM 55.0 °F 39.0 °F 55% 30.16 in 10.0 mi South 10.4 mph - N/A   Clear
5:53 AM 55.0 °F 39.0 °F 55% 30.17 in 10.0 mi South 13.8 mph - N/A   Partly Cloudy
6:53 AM 55.0 °F 39.9 °F 57% 30.17 in 10.0 mi South 10.4 mph - N/A   Mostly Cloudy
7:53 AM 57.0 °F 41.0 °F 55% 30.17 in 10.0 mi South 12.7 mph - N/A   Clear
8:53 AM 59.0 °F 41.0 °F 51% 30.18 in 10.0 mi South 13.8 mph 24.2 mph N/A   Partly Cloudy
9:53 AM 62.1 °F 44.1 °F 52% 30.17 in 10.0 mi South 19.6 mph 28.8 mph N/A   Partly Cloudy
10:53 AM 63.0 °F 46.9 °F 56% 30.17 in 10.0 mi SSW 15.0 mph 28.8 mph N/A   Mostly Cloudy
11:53 AM 66.0 °F 50.0 °F 56% 30.15 in 10.0 mi South 21.9 mph 32.2 mph N/A   Overcast
12:53 PM 68.0 °F 52.0 °F 56% 30.10 in 10.0 mi South 19.6 mph 31.1 mph N/A   Overcast
1:53 PM 69.1 °F 51.1 °F 53% 30.06 in 10.0 mi South 21.9 mph 34.5 mph N/A   Overcast
2:53 PM 71.1 °F 51.1 °F 49% 30.06 in 10.0 mi SSW 21.9 mph 33.4 mph N/A   Mostly Cloudy
3:53 PM 70.0 °F 52.0 °F 53% 30.05 in 10.0 mi South 13.8 mph 27.6 mph N/A   Overcast
4:53 PM 70.0 °F 51.1 °F 51% 30.04 in 10.0 mi SSW 19.6 mph 26.5 mph N/A   Overcast
5:53 PM 69.1 °F 52.0 °F 54% 30.02 in 10.0 mi South 13.8 mph - N/A   Overcast
6:53 PM 69.1 °F 52.0 °F 54% 30.04 in 10.0 mi South 11.5 mph - N/A   Overcast
7:53 PM 68.0 °F 52.0 °F 56% 30.05 in 10.0 mi South 11.5 mph - N/A   Overcast
8:53 PM 68.0 °F 53.1 °F 59% 30.04 in 10.0 mi South 15.0 mph - N/A   Overcast
10:53 PM 66.9 °F 54.0 °F 63% 30.03 in 10.0 mi South 13.8 mph 20.7 mph N/A   Overcast
11:53 PM 66.9 °F 55.9 °F 68% 30.02 in 10.0 mi South 15.0 mph 25.3 mph N/A   Overcast